Ontario International Airport
KONT : now visible

Airfield :











YOU CAN JOIN US ON...

 
LOGIN :

Register | Disclaimer

   EN    FR    IT 

 









Legend :    VFR   Marginal VFR   IFR   Intensive IFR   Very Intensive IFR
Visi :
Ceiling :
>= 8 km
>= 3000ft
5 to 8 km
1000 to 3000 ft
1500m to 5 km
500 to 1000 ft
800 to 1500m
200 to 500 ft
< 800m
< 200 ft
Symbols :   Thunderstorms  Fog  Heavy snow  Heavy precipitations  Wind > 20 kt






- Airport Elevation : 944 ft
- IATA code : ONT


KONT - Ontario International

CURRENT METAR :
  • 012253Z 28008KT 10SM FEW250 27/M14 A3001 RMK AO2 SLP153 T02671139

EXPIRED METARs :
  • 012153Z 27005KT 10SM CLR 26/M13 A3001 RMK AO2 SLP155 T02611133
  • 012053Z 00000KT 10SM CLR 26/M13 A3002 RMK AO2 SLP159 T02561133 57022

TAF KONT
Valid from the 01 at 18:00 until the 03 at 00:00 UTC


011720Z 0118/0224 VRB04KT P6SM SKC
FM012000 29006KT P6SM SKC
FM020200 04005KT P6SM SKC
FM022000 28005KT P6SM SKC
KZLA FIR / North America



MET'MAP, your aeronautical weather chart ! - Copyright ORBIFLY December 2007 - Disclaimer

ORBIFLY MET'MAP TEAM :

Programming & Development : Alexandra Zaïnal
Concept & original design : Baudouin d'Aumeries
Assistance for programming : Marc-Olivier Méhu
Technical & hardware support : Manuel Goepfert

Contact : metmap@orbifly.com




SOURCES & CREDITS :

   NOAA       Earth
Advisory